Flag for China Weather past 2 weeks in Langfang, Hebei, China

Now
77 °F

Fog.


Feels Like: 78 °F
Forecast: 67 / 86 °F
Wind: 1 mph from North

Location: Beijing Airport

Current Time: Aug 3, 2015 at 6:29:41 AM

Latest Report: Aug 3, 2015 at 5:30 AM


Visibility: 2 mi

Pressure: 29.59 "Hg

Humidity: 94%

Dew point: 75 °F

Location of LangfangLocation

Historic Weather in Langfang — Graph

°F

Langfang temperature yesterday

Maximum temperature yesterday: 86 °F (at 3:00 PM)
Minimum temperature yesterday: 73 °F (at 1:30 AM)
Average temperature yesterday: 79 °F

Past Weeks' High & Low Weather Summary

 TemperatureHumidityPressure
High95 °F (Jul 26, 3:00 PM)100% (Jul 19, 8:00 AM)29.80 "Hg (Jul 19, 8:00 AM)
Low70 °F (Jul 22, 3:00 AM)38% (Jul 24, 3:30 PM)29.50 "Hg (Jul 24, 4:00 PM)
Average79 °F81%29.65 "Hg
* Reported Jul 19 5:00 AM — Aug 3 5:00 AM, Langfang, Weather by CustomWeather, © 2015

Note: Actual official high and low records may vary slightly from our data, if they occured in-between our weather recording intervals... More about our weather records

Advertising

Langfang weather history for previous 24 hours

 ConditionsComfort  
Time TempWeatherWind HumidityBarometerVisibility
5:00 AM
Mon, Aug 3
77 °FFog.1 mph94%29.59 "Hg2 mi
4:30 AM77 °FFog.3 mph94%29.59 "Hg2 mi
4:00 AM77 °FFog.1 mph94%29.59 "Hg2 mi
3:30 AM77 °FFog.1 mph94%29.59 "Hg2 mi
3:00 AM77 °FFog.1 mph94%29.59 "Hg2 mi
2:30 AM77 °FFog.1 mph100%29.59 "Hg2 mi
2:00 AM77 °FFog.1 mph94%29.62 "Hg2 mi
1:30 AM77 °FFog.1 mph94%29.62 "Hg2 mi
1:00 AM77 °FFog.1 mph94%29.62 "Hg2 mi
12:30 AM77 °FFog.1 mph94%29.62 "Hg3 mi
12:00 AM79 °FFog.1 mph89%29.62 "Hg3 mi
11:30 PM
Sun, Aug 2
79 °FFog.No wind89%29.65 "Hg3 mi
11:00 PM79 °FFog.1 mph89%29.62 "Hg3 mi
10:30 PM79 °FClear.6 mph89%29.62 "Hg4 mi
10:00 PM79 °FClear.6 mph94%29.62 "Hg4 mi
9:30 PM79 °FClear.3 mph94%29.62 "Hg4 mi
9:00 PM81 °FClear.3 mph89%29.59 "Hg4 mi
8:30 PM81 °FClear.6 mph89%29.59 "Hg4 mi
8:00 PM81 °FClear.3 mph89%29.59 "Hg4 mi
7:30 PM82 °FClear.3 mph84%29.56 "Hg4 mi
7:00 PM82 °FClear.6 mph84%29.56 "Hg4 mi
6:30 PM84 °FClear.6 mph79%29.53 "Hg4 mi
6:00 PM84 °FClear.8 mph79%29.53 "Hg4 mi
5:30 PM86 °FClear.6 mph75%29.53 "Hg4 mi
5:00 PM86 °FClear.3 mph75%29.53 "Hg4 mi
4:30 PM86 °FClear.3 mph75%29.53 "Hg4 mi
4:00 PM86 °FClear.3 mph75%29.53 "Hg4 mi
3:30 PM86 °FClear.3 mph75%29.53 "Hg4 mi
3:00 PM86 °FClear.3 mph70%29.56 "Hg4 mi
2:30 PM84 °FFog.3 mph74%29.56 "Hg3 mi
2:00 PM84 °FFog.3 mph74%29.56 "Hg3 mi
1:30 PM84 °FFog.1 mph79%29.59 "Hg3 mi
1:00 PM82 °FFog.1 mph79%29.59 "Hg2 mi
12:30 PM81 °FFog.1 mph84%29.59 "Hg2 mi
12:00 PM79 °FFog.3 mph89%29.62 "Hg2 mi
11:30 AM79 °FFog.1 mph84%29.62 "Hg2 mi
11:00 AM77 °FFog.3 mph89%29.62 "Hg2 mi
10:30 AM77 °FFog.3 mph89%29.65 "Hg2 mi
10:00 AM77 °FFog.3 mph89%29.65 "Hg2 mi
9:30 AM77 °FFog.1 mph89%29.62 "Hg3 mi
9:00 AM75 °FFog.1 mph89%29.65 "Hg2 mi
8:30 AM75 °FFog.3 mph94%29.62 "Hg2 mi
8:00 AM75 °FFog.1 mph94%29.62 "Hg2 mi
7:30 AM75 °FFog.1 mph94%29.65 "Hg2 mi
6:30 AM73 °FFog.1 mph94%29.65 "Hg2 mi
6:00 AM73 °FLight rain. Fog.1 mph94%29.65 "Hg2 mi
Weather by CustomWeather, © 2015

See weather overviewHow to use our weather pages